Location: La Coruña
(43.3623°N, 8.4115°W)
Time: 01:21:19
(UTC+01:00)

STARLINK-1090 - Pass Details

Date: 19 January 2020
Orbit: 348 x 351 km, 53.0° (Epoch: 17 February)

Event Time Altitude Azimuth Distance (km) Brightness Sun altitude
Rises 20:27:55 0° 276° (W) 2,175 8.1 -21.5°
Reaches altitude 10° 20:30:19 10° 296° (WNW) 1,334 6.4 -22.0°
Enters shadow 20:31:54 17° 327° (NNW) 990 5.2 -22.3°
